This is the latest recevied weather packets stored in our database for station/object KC3AWA. If no packets are shown the sender has not sent any weather packets the latest 10 day(s).
| Time | Temp. | Humidity | Pressure | Rain* | Wind** | Luminosity | Snow |
|---|---|---|---|---|---|---|---|
| 1777488945 | 13.33° C | 98% | 1007 hPa | 0 mm | - | 221 W/m² | - |
| 1777488642 | 13.33° C | 98% | 1007 hPa | 0 mm | - | 210 W/m² | - |
| 1777488340 | 13.33° C | 98% | 1007.3 hPa | 3.05 mm | - | 192 W/m² | - |
| 1777488038 | 12.78° C | 98% | 1007.1 hPa | 6.1 mm | - | 212 W/m² | - |
| 1777487735 | 12.78° C | 98% | 1007.3 hPa | 7.87 mm | - | 269 W/m² | - |
| 1777487433 | 12.78° C | 98% | 1007.4 hPa | 6.1 mm | - | 117 W/m² | - |
| 1777487130 | 12.78° C | 98% | 1007.5 hPa | 13.72 mm | - | 54 W/m² | - |
| 1777486826 | 12.78° C | 98% | 1007.6 hPa | 19.81 mm | - | 44 W/m² | - |
| 1777486524 | 12.78° C | 98% | 1007.6 hPa | 25.91 mm | - | 55 W/m² | - |
| 1777486221 | 12.78° C | 98% | 1007.8 hPa | 25.91 mm | - | 48 W/m² | - |
| 1777485919 | 12.78° C | 97% | 1007.8 hPa | 16.76 mm | - | 36 W/m² | - |
| 1777485614 | 12.78° C | 97% | 1007.7 hPa | 6.1 mm | - | 24 W/m² | - |
| 1777485309 | 12.78° C | 97% | 1007.8 hPa | 3.05 mm | - | 23 W/m² | - |
| 1777485006 | 12.78° C | 97% | 1007.6 hPa | 1.78 mm | - | 54 W/m² | - |
| 1777484704 | 12.78° C | 97% | 1007.7 hPa | 1.27 mm | - | 74 W/m² | - |
| 1777484400 | 12.78° C | 97% | 1007.9 hPa | 3.05 mm | - | 72 W/m² | - |
| 1777484096 | 12.78° C | 97% | 1007.8 hPa | 3.05 mm | - | 85 W/m² | - |
| 1777483792 | 12.78° C | 97% | 1008.1 hPa | 4.83 mm | - | 79 W/m² | - |
| 1777483489 | 12.78° C | 97% | 1007.9 hPa | 6.6 mm | - | 135 W/m² | - |
| 1777483184 | 12.78° C | 97% | 1008.5 hPa | 7.11 mm | - | 106 W/m² | - |
| 1777482881 | 12.78° C | 97% | 1008.6 hPa | 6.1 mm | - | 104 W/m² | - |
| 1777482576 | 12.78° C | 97% | 1008.9 hPa | 8.89 mm | - | 93 W/m² | - |
| 1777482274 | 12.78° C | 97% | 1008.9 hPa | 8.89 mm | - | 74 W/m² | - |
| 1777481971 | 13.33° C | 97% | 1009 hPa | 4.83 mm | - | 83 W/m² | - |
| 1777481669 | 12.78° C | 97% | 1009 hPa | 3.05 mm | - | 47 W/m² | - |
* Rain latest hour (hover to see other rain measurements)
** Current wind speed in m/s (hover to see current wind gust speed)